Time,TemperatureF,DewpointF,PressureIn,WindDirection,WindDirectionDegrees,WindSpeedMPH,WindSpeedGustMPH,Humidity,HourlyPrecipIn,Conditions,Clouds,dailyrainin,SoftwareType,DateUTC
2013-08-10 00:10:00,67.2,66.0,29.82,NNE,25,3.0,6.0,94,0.00,,,2.06,weatherlink.com 1.10,2013-08-10 04:10:00,
2013-08-10 00:25:00,66.3,64.0,29.82,North,355,3.0,7.0,93,0.00,,,2.06,weatherlink.com 1.10,2013-08-10 04:25:00,
2013-08-10 00:40:00,65.6,64.0,29.82,NNE,13,4.0,9.0,93,0.00,,,2.06,weatherlink.com 1.10,2013-08-10 04:40:00,
2013-08-10 00:55:00,64.7,63.0,29.83,NNE,15,6.0,9.0,93,0.00,,,2.06,weatherlink.com 1.10,2013-08-10 04:55:00,
2013-08-10 01:10:00,64.1,62.0,29.83,North,355,4.0,10.0,93,0.00,,,2.06,weatherlink.com 1.10,2013-08-10 05:10:00,
2013-08-10 01:25:00,63.5,62.0,29.83,North,360,3.0,7.0,93,0.00,,,2.06,weatherlink.com 1.10,2013-08-10 05:25:00,
2013-08-10 01:40:00,63.2,61.0,29.83,North,355,3.0,9.0,93,0.00,,,2.06,weatherlink.com 1.10,2013-08-10 05:40:00,
2013-08-10 01:55:00,63.2,61.0,29.83,North,355,0.0,5.0,92,0.00,,,0.00,weatherlink.com 1.10,2013-08-10 05:55:00,
2013-08-10 02:10:00,62.8,61.0,29.84,North,355,0.0,2.0,93,0.00,,,0.00,weatherlink.com 1.10,2013-08-10 06:10:00,
2013-08-10 02:25:00,62.3,61.0,29.84,NNE,12,0.0,3.0,94,0.00,,,0.00,weatherlink.com 1.10,2013-08-10 06:25:00,
2013-08-10 02:40:00,62.0,60.0,29.84,North,10,2.0,4.0,94,0.00,,,0.00,weatherlink.com 1.10,2013-08-10 06:40:00,
2013-08-10 02:55:00,62.2,61.0,29.84,NNE,25,4.0,6.0,94,0.00,,,0.00,weatherlink.com 1.10,2013-08-10 06:55:00,
2013-08-10 03:10:00,62.3,60.0,29.84,NNE,26,3.0,7.0,93,0.00,,,0.00,weatherlink.com 1.10,2013-08-10 07:10:00,
2013-08-10 03:25:00,62.3,60.0,29.85,North,355,2.0,8.0,92,0.00,,,0.00,weatherlink.com 1.10,2013-08-10 07:25:00,
2013-08-10 03:40:00,61.9,59.0,29.85,NNW,346,4.0,5.0,91,0.00,,,0.00,weatherlink.com 1.10,2013-08-10 07:40:00,
2013-08-10 03:55:00,61.4,59.0,29.86,NNW,342,3.0,5.0,92,0.00,,,0.00,weatherlink.com 1.10,2013-08-10 07:55:00,
2013-08-10 04:10:00,60.8,59.0,29.86,NW,315,0.0,6.0,92,0.00,,,0.00,weatherlink.com 1.10,2013-08-10 08:10:00,
2013-08-10 04:25:00,60.1,58.0,29.86,North,355,0.0,5.0,94,0.00,,,0.00,weatherlink.com 1.10,2013-08-10 08:25:00,
2013-08-10 04:40:00,59.6,58.0,29.87,NNW,331,2.0,4.0,95,0.00,,,0.00,weatherlink.com 1.10,2013-08-10 08:40:00,
2013-08-10 04:55:00,59.2,58.0,29.87,NNW,328,2.0,4.0,95,0.00,,,0.00,weatherlink.com 1.10,2013-08-10 08:55:00,
2013-08-10 05:10:00,59.1,58.0,29.88,North,355,0.0,5.0,95,0.00,,,0.00,weatherlink.com 1.10,2013-08-10 09:10:00,
2013-08-10 05:25:00,58.8,57.0,29.88,NNW,346,2.0,5.0,95,0.00,,,0.00,weatherlink.com 1.10,2013-08-10 09:25:00,
2013-08-10 05:40:00,58.4,57.0,29.88,NNW,329,1.0,4.0,96,0.00,,,0.00,weatherlink.com 1.10,2013-08-10 09:40:00,
2013-08-10 05:55:00,58.2,57.0,29.89,NW,323,0.0,3.0,96,0.00,,,0.00,weatherlink.com 1.10,2013-08-10 09:55:00,
2013-08-10 06:10:00,58.0,57.0,29.89,NW,323,1.0,3.0,96,0.00,,,0.00,weatherlink.com 1.10,2013-08-10 10:10:00,
2013-08-10 06:26:00,57.9,57.0,29.89,NW,308,1.0,3.0,96,0.00,,,0.00,weatherlink.com 1.10,2013-08-10 10:26:00,
2013-08-10 06:41:00,58.6,58.0,29.90,North,355,3.0,6.0,96,0.00,,,0.00,weatherlink.com 1.10,2013-08-10 10:41:00,
2013-08-10 06:56:00,59.6,58.0,29.90,NNE,20,6.0,7.0,94,0.00,,,0.00,weatherlink.com 1.10,2013-08-10 10:56:00,
2013-08-10 07:11:00,60.1,58.0,29.91,NE,38,3.0,6.0,92,0.00,,,0.00,weatherlink.com 1.10,2013-08-10 11:11:00,
2013-08-10 07:26:00,61.0,58.0,29.91,NNE,21,2.0,6.0,89,0.00,,,0.00,weatherlink.com 1.10,2013-08-10 11:26:00,
2013-08-10 07:41:00,62.3,58.0,29.91,NNE,19,3.0,7.0,86,0.00,,,0.00,weatherlink.com 1.10,2013-08-10 11:41:00,
2013-08-10 07:56:00,62.9,58.0,29.91,NNE,31,6.0,7.0,85,0.00,,,0.00,weatherlink.com 1.10,2013-08-10 11:56:00,
2013-08-10 08:11:00,63.5,59.0,29.91,NNE,15,3.0,8.0,84,0.00,,,0.00,weatherlink.com 1.10,2013-08-10 12:11:00,
2013-08-10 08:26:00,64.3,59.0,29.91,North,355,6.0,7.0,83,0.00,,,0.00,weatherlink.com 1.10,2013-08-10 12:26:00,
2013-08-10 08:41:00,65.0,59.0,29.92,NNE,17,2.0,10.0,82,0.00,,,0.00,weatherlink.com 1.10,2013-08-10 12:41:00,
2013-08-10 08:56:00,65.6,60.0,29.91,NNW,336,6.0,11.0,81,0.00,,,0.00,weatherlink.com 1.10,2013-08-10 12:56:00,
2013-08-10 09:11:00,66.8,60.0,29.92,North,5,1.0,10.0,78,0.00,,,0.00,weatherlink.com 1.10,2013-08-10 13:11:00,
2013-08-10 09:26:00,66.8,59.0,29.91,WNW,284,3.0,11.0,75,0.00,,,0.00,weatherlink.com 1.10,2013-08-10 13:26:00,
2013-08-10 09:41:00,67.8,59.0,29.92,North,360,6.0,13.0,73,0.00,,,0.00,weatherlink.com 1.10,2013-08-10 13:41:00,
2013-08-10 09:56:00,68.8,59.0,29.92,NNE,22,6.0,10.0,71,0.00,,,0.00,weatherlink.com 1.10,2013-08-10 13:56:00,
2013-08-10 10:11:00,68.3,58.0,29.92,WNW,289,6.0,10.0,69,0.00,,,0.00,weatherlink.com 1.10,2013-08-10 14:11:00,
2013-08-10 10:26:00,68.5,58.0,29.92,NNE,20,7.0,12.0,69,0.00,,,0.00,weatherlink.com 1.10,2013-08-10 14:26:00,
2013-08-10 10:41:00,69.9,58.0,29.91,West,281,7.0,12.0,65,0.00,,,0.00,weatherlink.com 1.10,2013-08-10 14:41:00,
2013-08-10 10:56:00,71.0,58.0,29.91,North,350,7.0,14.0,64,0.00,,,0.00,weatherlink.com 1.10,2013-08-10 14:56:00,
2013-08-10 11:11:00,71.4,58.0,29.91,NNW,345,3.0,10.0,62,0.00,,,0.00,weatherlink.com 1.10,2013-08-10 15:11:00,
2013-08-10 11:26:00,72.0,57.0,29.91,NW,313,3.0,14.0,59,0.00,,,0.00,weatherlink.com 1.10,2013-08-10 15:26:00,
2013-08-10 11:41:00,71.9,56.0,29.91,NE,36,5.0,18.0,57,0.00,,,0.00,weatherlink.com 1.10,2013-08-10 15:41:00,
2013-08-10 11:56:00,72.4,54.0,29.91,North,5,8.0,17.0,53,0.00,,,0.00,weatherlink.com 1.10,2013-08-10 15:56:00,
2013-08-10 12:11:00,72.8,55.0,29.91,NE,47,2.0,19.0,54,0.00,,,0.00,weatherlink.com 1.10,2013-08-10 16:11:00,
2013-08-10 12:26:00,73.1,55.0,29.92,NW,304,9.0,15.0,53,0.00,,,0.00,weatherlink.com 1.10,2013-08-10 16:26:00,
2013-08-10 12:41:00,73.2,54.0,29.91,WNW,286,8.0,14.0,52,0.00,,,0.00,weatherlink.com 1.10,2013-08-10 16:41:00,
2013-08-10 12:56:00,74.7,56.0,29.92,North,360,7.0,13.0,52,0.00,,,0.00,weatherlink.com 1.10,2013-08-10 16:56:00,
2013-08-10 13:11:00,74.2,56.0,29.92,NNW,336,7.0,12.0,53,0.00,,,0.00,weatherlink.com 1.10,2013-08-10 17:11:00,
2013-08-10 13:26:00,74.6,55.0,29.92,NW,325,7.0,14.0,50,0.00,,,0.00,weatherlink.com 1.10,2013-08-10 17:26:00,
2013-08-10 13:41:00,74.8,54.0,29.91,NNW,339,3.0,13.0,49,0.00,,,0.00,weatherlink.com 1.10,2013-08-10 17:41:00,
2013-08-10 13:56:00,75.4,56.0,29.91,NNE,22,5.0,13.0,51,0.00,,,0.00,weatherlink.com 1.10,2013-08-10 17:56:00,
2013-08-10 14:12:00,74.9,54.0,29.91,WNW,294,8.0,16.0,49,0.00,,,0.00,weatherlink.com 1.10,2013-08-10 18:12:00,
2013-08-10 14:27:00,74.7,55.0,29.91,NNE,13,3.0,14.0,50,0.00,,,0.00,weatherlink.com 1.10,2013-08-10 18:27:00,
2013-08-10 14:42:00,74.4,57.0,29.92,West,265,2.0,10.0,54,0.00,,,0.00,weatherlink.com 1.10,2013-08-10 18:42:00,
2013-08-10 14:57:00,74.0,55.0,29.92,ENE,67,5.0,12.0,51,0.00,,,0.00,weatherlink.com 1.10,2013-08-10 18:57:00,
2013-08-10 15:12:00,74.7,54.0,29.92,ENE,74,2.0,14.0,48,0.00,,,0.00,weatherlink.com 1.10,2013-08-10 19:12:00,
2013-08-10 15:27:00,74.9,53.0,29.92,WNW,284,3.0,13.0,46,0.00,,,0.00,weatherlink.com 1.10,2013-08-10 19:27:00,
2013-08-10 15:42:00,73.7,52.0,29.92,NNW,328,4.0,16.0,46,0.00,,,0.00,weatherlink.com 1.10,2013-08-10 19:42:00,
2013-08-10 15:57:00,72.3,54.0,29.93,WNW,290,4.0,11.0,52,0.00,,,0.00,weatherlink.com 1.10,2013-08-10 19:57:00,
2013-08-10 16:12:00,73.1,55.0,29.93,North,11,7.0,13.0,54,0.00,,,0.00,weatherlink.com 1.10,2013-08-10 20:12:00,
2013-08-10 16:27:00,71.7,54.0,29.93,WNW,286,6.0,13.0,54,0.00,,,0.00,weatherlink.com 1.10,2013-08-10 20:27:00,
2013-08-10 16:42:00,70.9,55.0,29.94,NE,40,5.0,11.0,57,0.00,,,0.00,weatherlink.com 1.10,2013-08-10 20:42:00,
2013-08-10 16:57:00,71.0,56.0,29.94,NNW,339,0.0,11.0,59,0.00,,,0.00,weatherlink.com 1.10,2013-08-10 20:57:00,
2013-08-10 17:12:00,70.1,55.0,29.94,NNW,348,2.0,12.0,59,0.00,,,0.00,weatherlink.com 1.10,2013-08-10 21:12:00,
2013-08-10 17:27:00,69.4,54.0,29.95,NW,323,5.0,10.0,58,0.00,,,0.00,weatherlink.com 1.10,2013-08-10 21:27:00,
2013-08-10 17:42:00,69.1,54.0,29.94,North,360,4.0,11.0,59,0.00,,,0.00,weatherlink.com 1.10,2013-08-10 21:42:00,
2013-08-10 17:57:00,68.9,53.0,29.95,NNW,348,6.0,10.0,57,0.00,,,0.00,weatherlink.com 1.10,2013-08-10 21:57:00,
2013-08-10 18:12:00,68.6,54.0,29.95,North,5,3.0,10.0,59,0.00,,,0.00,weatherlink.com 1.10,2013-08-10 22:12:00,
2013-08-10 18:27:00,69.0,53.0,29.95,NE,41,1.0,11.0,57,0.00,,,0.00,weatherlink.com 1.10,2013-08-10 22:27:00,
2013-08-10 18:42:00,68.1,53.0,29.96,ENE,74,3.0,9.0,59,0.00,,,0.00,weatherlink.com 1.10,2013-08-10 22:42:00,
2013-08-10 18:57:00,68.3,54.0,29.96,NW,307,2.0,8.0,60,0.00,,,0.00,weatherlink.com 1.10,2013-08-10 22:57:00,
2013-08-10 19:12:00,68.6,54.0,29.96,North,355,1.0,5.0,61,0.00,,,0.00,weatherlink.com 1.10,2013-08-10 23:12:00,
2013-08-10 19:29:00,67.0,54.0,29.96,North,355,2.0,5.0,63,0.00,,,0.00,weatherlink.com 1.10,2013-08-10 23:29:00,
2013-08-10 19:42:00,66.4,54.0,29.96,North,355,0.0,6.0,65,0.00,,,0.00,weatherlink.com 1.10,2013-08-10 23:42:00,
2013-08-10 19:57:00,64.9,54.0,29.96,North,5,3.0,6.0,68,0.00,,,0.00,weatherlink.com 1.10,2013-08-10 23:57:00,
2013-08-10 20:12:00,62.9,53.0,29.97,NNE,23,1.0,4.0,71,0.00,,,0.00,weatherlink.com 1.10,2013-08-11 00:12:00,
2013-08-10 20:27:00,61.8,53.0,29.98,NNE,23,0.0,1.0,74,0.00,,,0.00,weatherlink.com 1.10,2013-08-11 00:27:00,
2013-08-10 20:42:00,60.8,54.0,29.99,NNE,23,0.0,2.0,78,0.00,,,0.00,weatherlink.com 1.10,2013-08-11 00:42:00,
2013-08-10 20:57:00,59.4,54.0,29.99,North,5,1.0,3.0,83,0.00,,,0.00,weatherlink.com 1.10,2013-08-11 00:57:00,
2013-08-10 21:12:00,58.1,54.0,30.00,North,5,2.0,3.0,86,0.00,,,0.00,weatherlink.com 1.10,2013-08-11 01:12:00,
2013-08-10 21:27:00,57.3,54.0,30.00,NNW,342,1.0,3.0,87,0.00,,,0.00,weatherlink.com 1.10,2013-08-11 01:27:00,
2013-08-10 21:42:00,56.7,53.0,30.00,North,349,1.0,4.0,88,0.00,,,0.00,weatherlink.com 1.10,2013-08-11 01:42:00,
2013-08-10 21:57:00,56.2,53.0,30.01,North,350,2.0,4.0,89,0.00,,,0.00,weatherlink.com 1.10,2013-08-11 01:57:00,
2013-08-10 22:12:00,55.6,53.0,30.01,North,349,2.0,4.0,90,0.00,,,0.00,weatherlink.com 1.10,2013-08-11 02:12:00,
2013-08-10 22:27:00,55.1,52.0,30.02,North,360,2.0,5.0,90,0.00,,,0.00,weatherlink.com 1.10,2013-08-11 02:27:00,
2013-08-10 22:42:00,54.6,52.0,30.02,North,5,1.0,4.0,91,0.00,,,0.00,weatherlink.com 1.10,2013-08-11 02:42:00,
2013-08-10 23:12:00,53.7,51.0,30.02,North,9,1.0,5.0,90,0.00,,,0.00,weatherlink.com 1.10,2013-08-11 03:12:00,
2013-08-10 23:27:00,53.4,51.0,30.02,NNW,340,0.0,4.0,91,0.00,,,0.00,weatherlink.com 1.10,2013-08-11 03:27:00,
2013-08-10 23:57:00,52.8,51.0,30.02,NNW,348,2.0,3.0,93,0.00,,,0.00,weatherlink.com 1.10,2013-08-11 03:57:00,